FDX303 KMEM-KMIA

Flight info

Callsign FDX303
Flight time N/A
Altitude 39000
Route KERMI MGMRY ACORI
Aircraft MD11/H-SDFGHIRWXYZ/LB1D1

Departure

Time N/A
Airport Memphis International Airport (KMEM)

Arrival

Time 2026-05-05 12:44
Airport Miami International Airport (KMIA)
Time Latitude Longitude Altitude Speed Heading
2026-05-05 12:27 26.19821 -81.70197 23217 ft 463 kts 114°
2026-05-05 12:27 26.18531 -81.66947 22512 ft 456 kts 114°
2026-05-05 12:27 26.17263 -81.63738 21865 ft 450 kts 114°
2026-05-05 12:27 26.15983 -81.60586 21237 ft 444 kts 115°
2026-05-05 12:28 26.14686 -81.57480 20619 ft 439 kts 116°
2026-05-05 12:28 26.13388 -81.54433 20016 ft 434 kts 116°
2026-05-05 12:28 26.12091 -81.51425 19418 ft 429 kts 117°
2026-05-05 12:28 26.10820 -81.48495 18825 ft 424 kts 117°
2026-05-05 12:29 26.09542 -81.45554 18235 ft 419 kts 117°
2026-05-05 12:29 26.08284 -81.42662 17587 ft 413 kts 117°
2026-05-05 12:29 26.07038 -81.39800 16991 ft 408 kts 117°
2026-05-05 12:29 26.05807 -81.36982 16379 ft 402 kts 117°
2026-05-05 12:30 26.04593 -81.34202 15866 ft 397 kts 117°
2026-05-05 12:30 26.03392 -81.31451 15344 ft 392 kts 117°
2026-05-05 12:30 26.02209 -81.28739 14795 ft 388 kts 117°
2026-05-05 12:30 26.01043 -81.26066 14258 ft 383 kts 118°
2026-05-05 12:31 25.99886 -81.23415 13707 ft 378 kts 118°
2026-05-05 12:31 25.98759 -81.20834 13109 ft 373 kts 118°
2026-05-05 12:31 25.97633 -81.18256 12572 ft 368 kts 118°
2026-05-05 12:31 25.96522 -81.15714 12151 ft 363 kts 117°
2026-05-05 12:32 25.95422 -81.13198 11781 ft 361 kts 118°
2026-05-05 12:32 25.94331 -81.10710 11390 ft 358 kts 118°
2026-05-05 12:32 25.93245 -81.08236 10963 ft 352 kts 118°
2026-05-05 12:32 25.92192 -81.05832 10781 ft 338 kts 118°
2026-05-05 12:33 25.91219 -81.03534 10637 ft 316 kts 116°
2026-05-05 12:33 25.90342 -81.01308 10324 ft 313 kts 115°
2026-05-05 12:33 25.89495 -80.99099 9981 ft 309 kts 115°
2026-05-05 12:33 25.88661 -80.96916 9572 ft 306 kts 115°
2026-05-05 12:34 25.87831 -80.94742 9149 ft 304 kts 115°
2026-05-05 12:34 25.87022 -80.92622 8965 ft 294 kts 115°
2026-05-05 12:34 25.86223 -80.90534 8911 ft 294 kts 115°
2026-05-05 12:34 25.85424 -80.88450 8846 ft 293 kts 115°
2026-05-05 12:35 25.84618 -80.86353 8559 ft 295 kts 115°
2026-05-05 12:35 25.83818 -80.84273 8171 ft 291 kts 115°
2026-05-05 12:35 25.83024 -80.82208 7738 ft 291 kts 115°
2026-05-05 12:35 25.82229 -80.80143 7308 ft 291 kts 115°
2026-05-05 12:36 25.81434 -80.78079 6897 ft 291 kts 115°
2026-05-05 12:36 25.80642 -80.76018 6502 ft 290 kts 115°
2026-05-05 12:36 25.79857 -80.73971 6126 ft 287 kts 115°
2026-05-05 12:36 25.79080 -80.71946 5763 ft 284 kts 115°
2026-05-05 12:37 25.78503 -80.69878 5365 ft 280 kts 98°
2026-05-05 12:37 25.78411 -80.67743 5084 ft 273 kts 90°
2026-05-05 12:37 25.78464 -80.65652 5020 ft 271 kts 89°
2026-05-05 12:37 25.78543 -80.63569 4999 ft 271 kts 88°
2026-05-05 12:38 25.78646 -80.61479 4993 ft 271 kts 87°
2026-05-05 12:38 25.78788 -80.59418 4680 ft 270 kts 86°
2026-05-05 12:38 25.78925 -80.57353 4281 ft 267 kts 87°
2026-05-05 12:38 25.79015 -80.55365 4027 ft 247 kts 88°
2026-05-05 12:39 25.79085 -80.53558 3959 ft 223 kts 88°
2026-05-05 12:39 25.79152 -80.51881 3695 ft 211 kts 88°
2026-05-05 12:39 25.79218 -80.50312 3424 ft 197 kts 87°
2026-05-05 12:39 25.79282 -80.48843 3184 ft 186 kts 87°
2026-05-05 12:40 25.79341 -80.47432 2946 ft 182 kts 87°
2026-05-05 12:40 25.79401 -80.46033 2729 ft 181 kts 87°
2026-05-05 12:40 25.79460 -80.44646 2486 ft 179 kts 86°
2026-05-05 12:40 25.79519 -80.43273 2290 ft 177 kts 87°
2026-05-05 12:41 25.79576 -80.41913 2061 ft 175 kts 86°
2026-05-05 12:41 25.79631 -80.40561 1848 ft 175 kts 86°
2026-05-05 12:41 25.79688 -80.39226 1613 ft 172 kts 86°
2026-05-05 12:41 25.79744 -80.37916 1370 ft 171 kts 87°
2026-05-05 12:42 25.79798 -80.36607 1142 ft 171 kts 86°
2026-05-05 12:42 25.79850 -80.35313 929 ft 159 kts 86°
2026-05-05 12:42 25.79901 -80.34141 692 ft 151 kts 87°
2026-05-05 12:42 25.79950 -80.32980 524 ft 152 kts 87°
2026-05-05 12:43 25.79997 -80.31764 394 ft 161 kts 88°
2026-05-05 12:43 25.80053 -80.30535 221 ft 160 kts 87°
2026-05-05 12:43 25.80103 -80.29312 47 ft 154 kts 88°
2026-05-05 12:43 25.80145 -80.28225 24 ft 124 kts 86°
2026-05-05 12:44 25.80185 -80.27392 27 ft 89 kts 87°
2026-05-05 12:44 25.80195 -80.27069 28 ft 10 kts 83°
2026-05-05 12:44 25.80198 -80.27041 28 ft 7 kts 81°
2026-05-05 12:44 25.80231 -80.26993 28 ft 7 kts 27°
2026-05-05 12:45 25.80277 -80.26983 27 ft 7 kts
2026-05-05 12:45 25.80299 -80.26984 26 ft 0 kts 358°
2026-05-05 12:45 25.80310 -80.26985 29 ft 6 kts 357°
2026-05-05 12:46 25.80379 -80.26989 27 ft 12 kts 357°
2026-05-05 12:46 25.80462 -80.26993 24 ft 12 kts 358°
2026-05-05 12:46 25.80512 -80.27024 26 ft 8 kts 296°
2026-05-05 12:46 25.80516 -80.27104 26 ft 13 kts 269°
2026-05-05 12:47 25.80511 -80.27212 28 ft 13 kts 267°
2026-05-05 12:47 25.80509 -80.27310 28 ft 12 kts 268°
2026-05-05 12:47 25.80506 -80.27402 26 ft 12 kts 268°
2026-05-05 12:47 25.80505 -80.27463 23 ft 11 kts 271°
2026-05-05 12:48 25.80506 -80.27545 27 ft 9 kts 269°
2026-05-05 12:48 25.80504 -80.27620 25 ft 10 kts 268°
2026-05-05 12:48 25.80501 -80.27693 27 ft 10 kts 267°
2026-05-05 12:48 25.80497 -80.27786 27 ft 15 kts 267°
2026-05-05 12:49 25.80492 -80.27907 28 ft 16 kts 267°
2026-05-05 12:49 25.80487 -80.28035 29 ft 16 kts 268°
2026-05-05 12:49 25.80482 -80.28152 27 ft 14 kts 266°
2026-05-05 12:49 25.80478 -80.28254 28 ft 14 kts 268°
2026-05-05 12:50 25.80473 -80.28384 25 ft 19 kts 268°
2026-05-05 12:50 25.80469 -80.28530 23 ft 19 kts 268°
2026-05-05 12:50 25.80462 -80.28666 24 ft 17 kts 266°
2026-05-05 12:50 25.80456 -80.28788 24 ft 15 kts 266°
2026-05-05 12:51 25.80451 -80.28909 26 ft 16 kts 268°
2026-05-05 12:51 25.80448 -80.29028 22 ft 14 kts 268°
2026-05-05 12:51 25.80444 -80.29129 25 ft 12 kts 267°
2026-05-05 12:51 25.80440 -80.29214 29 ft 13 kts 267°
2026-05-05 12:52 25.80435 -80.29338 28 ft 19 kts 267°
2026-05-05 12:52 25.80429 -80.29463 24 ft 12 kts 267°
2026-05-05 12:52 25.80426 -80.29531 28 ft 6 kts 267°
2026-05-05 12:52 25.80430 -80.29552 28 ft 1 kts 292°
2026-05-05 12:53 25.80440 -80.29562 30 ft 3 kts 322°
2026-05-05 12:53 25.80468 -80.29567 28 ft 6 kts 354°
2026-05-05 12:53 25.80492 -80.29569 28 ft 1 kts 356°
2026-05-05 12:53 25.80504 -80.29570 28 ft 1 kts 357°
2026-05-05 12:54 25.80505 -80.29570 28 ft 0 kts 357°